World > North America > United States > New York

Hourly Mount Kisco, NY Regional Weather

Feedback E-mail the Weather

Latest News

Mount Kisco, NY Weather Maps

°F °C°F °C
Mount Kisco Weather Map
UTC Time: 5/26/2022, 08:16
Your Time:

Mount Kisco, NY Regional Weather

Expires:202205260900;;599237
ASUS41 KALY 260810
RWRALY

NEW YORK STATE HOURLY WEATHER ROUNDUP
NATIONAL WEATHER SERVICE ALBANY NY
400 AM EDT THU MAY 26 2022

NOTE: "FAIR" INDICATES FEW OR NO CLOUDS BELOW 12,000 FEET WITH NO
SIGNIFICANT WEATHER AND/OR NO OBSTRUCTIONS TO VISIBILITY.


NYZ032-033-038>043-046>054-057>066-NYZ062>081-082-084-260900-
EAST

  
CITY           SKY/WX    TMP DP  RH WIND       PRES   REMARKS
ALBANY         CLOUDY    58  43  57 S9        30.27S                  
GLENS FALLS    PTCLDY    59  49  69 S8        30.26S                  
POUGHKEEPSIE   PTCLDY    54  42  64 CALM      30.30F                  
NEWBURGH       CLEAR     54  43  66 CALM      30.34S                  
MONTGOMERY     PTCLDY    49  45  86 CALM      30.30S                  
WHITE PLAINS   PTCLDY    50  45  83 E5        30.31F                  
ISLIP          PTCLDY    51  48  89 E3        30.32F                  
NEW YORK CITY  CLOUDY    56  46  69 E7        30.31F                  
CENTRAL PARK   PTCLDY    55  46  71 CALM      30.34F                  
$$


SKY/WX - Weather  TMP - Temperature  DP - Dew Point  RH - Humidity
WIND - Wind Direction/Speed PRES - Barometric Pressure VSB - Visibility
WCI - Wind Chill Index E13G22 Wind - East Wind 13 mph/Gusts of 22 mph

Trending Headlines

Mount Kisco Radar Loop



Mount Kisco Quick Facts


National Two Day Weather Forecast


E-mail the Mount Kisco Weather Forecast

Voice your opinion or tell us about page issues...